Lapse_Rate
7.2 7.1 7.0 7.0 7.0 7.1 7.2 7.0 6.9 6.8 6.8 6.8 6.7 6.5 6.3 6.2 6.0 5.8 5.5 5.5 5.4 5.5
7.2 7.1 6.9 7.1 7.2 7.1 7.1 6.9 6.9 6.7 6.7 6.7 6.7 6.8 6.7 6.4 6.0 5.6 5.4 5.5 5.4 5.4
7.2 7.1 6.9 6.6 6.3 6.6 6.5 6.9 6.8 6.8 6.7 6.7 6.9 6.9 7.0 6.8 6.5 6.0 5.4 5.3 5.3 5.4
7.5 7.4 6.8 6.7 6.6 5.9 5.5 6.3 6.5 6.6 6.6 6.5 6.8 6.9 6.6 6.6 6.2 5.9 5.7 5.4 5.3 5.3
7.7 7.6 7.0 6.3 7.1 6.6 6.6 5.8 6.2 6.6 6.6 6.3 6.4 6.3 6.3 6.4 6.3 6.0 5.8 5.8 5.5 5.2
7.7 7.3 7.0 6.8 6.7 5.9 6.1 5.6 5.6 6.1 6.3 6.5 6.4 6.3 6.2 6.2 6.2 6.2 5.9 5.9 5.6 5.3
7.7 7.3 7.0 6.8 6.5 6.7 6.4 5.5 5.9 6.3 5.9 5.6 6.2 6.1 6.3 6.5 6.1 6.0 5.7 5.6 5.5 5.3
7.8 7.4 7.2 7.0 6.8 6.6 6.2 5.7 6.2 5.9 5.5 5.4 6.1 6.0 6.2 6.3 5.5 5.9 5.7 5.6 5.3 5.2
8.0 7.8 7.5 7.4 6.9 6.8 6.4 6.6 6.8 6.3 5.4 5.5 6.0 6.1 6.1 5.9 5.6 5.6 5.7 5.7 5.5 5.3
8.3 8.2 8.2 8.1 7.5 7.0 6.4 6.3 6.6 6.2 5.3 5.9 5.9 5.9 5.6 5.8 5.8 5.8 5.6 5.5 5.4 5.5
8.2 8.0 8.0 8.0 7.5 7.2 6.8 6.7 6.7 6.7 5.6 5.8 5.9 5.3 5.2 5.2 5.2 5.1 5.3 5.6 5.5 5.5
8.2 8.2 8.0 7.4 7.4 7.1 6.7 6.6 6.8 6.2 5.7 5.9 5.4 5.4 5.0 5.0 5.2 5.2 5.4 5.5 5.4 5.3
8.0 8.0 7.6 7.2 6.8 6.7 6.6 6.6 6.9 6.5 6.0 5.7 5.7 6.0 5.4 5.1 5.0 4.9 5.6 5.6 5.2 5.1
8.0 7.7 7.6 7.1 6.7 6.6 6.6 6.6 6.6 6.1 5.7 5.5 5.7 5.7 5.2 5.1 4.9 4.8 5.0 5.7 5.2 5.7
Wind_Speed
15 11 8 11 8 8 8 7 7 8 9 8 8 7 7 5 5 5 5 6 5 5
14 14 12 12 8 8 6 7 9 9 9 8 8 8 7 5 5 5 5 6 6 7
15 13 9 5 6 8 9 7 8 9 9 9 9 8 7 6 6 6 6 6 7 7
14 11 7 9 6 7 5 6 7 8 9 10 9 8 8 7 7 8 8 7 8 9
12 13 14 8 6 7 5 5 6 7 9 10 10 8 8 8 8 9 10 8 8 9
13 16 14 13 13 5 4 2 7 8 10 9 10 9 9 10 10 10 9 8 8 9
15 16 15 13 14 12 10 12 12 11 9 9 10 10 11 10 10 11 9 9 9 10
17 16 16 16 16 14 13 12 9 10 10 12 11 10 11 12 11 10 10 9 9 10
18 18 18 17 16 15 14 15 12 11 12 14 10 10 13 13 10 10 10 9 10 9
18 18 19 18 16 16 16 13 13 12 12 15 11 14 15 13 10 9 10 9 10 9
17 18 17 17 19 17 13 15 14 14 14 14 12 11 11 7 8 8 11 10 9 8
17 18 18 18 18 15 12 13 14 13 12 12 10 6 6 3 4 7 9 8 7 7
16 16 18 17 16 12 11 12 11 13 10 13 12 12 15 10 3 7 6 4 5 7
15 15 15 12 11 11 11 12 12 13 9 7 9 8 13 14 6 7 7 8 7 5
Wind_Direction
204 207 199 198 196 201 197 200 192 197 197 197 198 193 198 211 221 216 231 225 239 251
200 207 203 193 190 195 196 192 189 195 192 192 196 199 199 224 234 240 239 243 238 238
204 199 180 206 170 195 190 206 191 183 195 198 203 206 213 215 216 224 239 241 233 240
199 177 142 171 198 155 183 184 205 199 204 210 207 212 218 233 241 236 243 240 240 246
166 150 166 189 189 153 154 169 214 218 220 218 217 218 225 238 245 240 242 237 237 253
170 171 169 169 147 144 151 177 222 223 226 220 226 221 223 229 238 241 244 250 254 261
177 173 171 165 147 166 146 211 211 209 217 218 226 226 230 226 228 242 247 247 250 255
181 175 170 174 170 174 188 213 218 199 212 220 226 227 225 231 230 239 248 251 253 247
180 176 184 182 184 183 201 211 202 201 211 222 224 212 222 232 234 240 247 256 257 249
186 188 189 187 186 199 213 221 219 213 216 227 221 220 225 219 240 249 249 255 260 264
191 195 191 190 197 204 214 221 224 223 221 226 225 210 208 211 246 259 261 255 259 262
195 193 188 198 201 205 211 229 230 231 227 228 243 119 89 129 325 303 288 277 246 231
198 199 198 200 204 207 212 233 237 232 213 213 216 178 173 125 153 274 271 264 246 224
186 199 201 201 202 198 199 221 215 218 221 224 221 165 146 157 172 220 247 244 234 222